Barter Island, AK

3:02 PM AKDT on July 26, 2017 (GMT -0800)
Barter Island LRRS

Weather History for PABA - November, 2013

Change the Weather History Date:

Saturday, November 9, 2013

  Actual Average Record
Temperature  
Mean Temperature 16 °F -  
Max Temperature 37 °F 11 °F 37 °F (2013)
Min Temperature 3 °F 1 °F -18 °F (1996)
Degree Days  
Heating Degree Days 48    
Moisture  
Dew Point 11 °F    
Average Humidity 75    
Maximum Humidity 86    
Minimum Humidity 64    
Precipitation  
Precipitation 0.00 in - - ()
Sea Level Pressure  
Sea Level Pressure 29.45 in    
Wind  
Wind Speed 10 mph (SSE)    
Max Wind Speed 17 mph    
Max Gust Speed -    
Visibility 10 miles    
Events      
Averages and records for this station are not official NWS values.
T = Trace of Precipitation, MM = Missing Value Source: NWS Daily Summary

Daily Weather History Graph

Daily Weather History Graph

Search for Another Location

Airport or City:

Trip Planner

Search our weather history database for the weather conditions in past years. The results will help you decide how hot, cold, wet, or windy it might be!

Date:

Astronomy

Nov. 09, 2013 Rise Set
Actual Time 9:52 AM AKST 2:42 PM AKST
Civil Twilight 8:25 AM AKST 4:09 PM AKST
Nautical Twilight 7:06 AM AKST 5:28 PM AKST
Astronomical Twilight 5:54 AM AKST 6:40 PM AKST
Moon 2:37 PM AKST (11/9) 10:33 PM AKST (11/9)
Length of Visible Light 7h 44m
Length of Day
4h 50m
Waxing Crescent, 46% of the Moon is Illuminated
Nov 9
Waxing Crescent
Nov 9
First Quarter
Nov 17
Full
Nov 25
Last Quarter
Dec 2
New

Hourly Weather History & Observations

Time (AKST) Temp. Windchill Dew Point Humidity Pressure Visibility Wind Dir Wind Speed Gust Speed Precip Events Conditions
12:01 AM 3.0 °F -12.5 °F -4.0 °F 73% 29.73 in 10.0 mi SSW 10.4 mph - N/A   Clear
1:01 AM 5.0 °F -6.9 °F -4.0 °F 66% 29.72 in 10.0 mi SSW 6.9 mph - N/A   Clear
2:01 AM 5.0 °F -11.6 °F -2.0 °F 73% 29.71 in 10.0 mi SSW 12.7 mph - N/A   Clear
3:01 AM 8.1 °F -7.0 °F -0.0 °F 70% 29.70 in 10.0 mi SSW 11.5 mph - N/A   Clear
4:01 AM 6.1 °F -6.8 °F -0.9 °F 73% 29.68 in 10.0 mi South 8.1 mph - N/A   Clear
5:01 AM 6.1 °F -0.9 °F -2.0 °F 69% 29.65 in 10.0 mi SE 3.5 mph - N/A   Clear
6:01 AM 10.9 °F 4.7 °F 1.0 °F 64% 29.62 in 10.0 mi SSE 3.5 mph - N/A   Clear
7:01 AM 8.1 °F -3.2 °F 3.0 °F 80% 29.60 in 10.0 mi East 6.9 mph - N/A   Clear
8:01 AM 9.0 °F -5.9 °F 1.9 °F 73% 29.58 in 10.0 mi ESE 11.5 mph - N/A   Clear
9:01 AM 10.9 °F -5.4 °F 5.0 °F 77% 29.55 in 10.0 mi SE 15.0 mph - N/A   Partly Cloudy
10:01 AM 15.1 °F 1.1 °F 9.0 °F 77% 29.51 in 10.0 mi SE 12.7 mph - N/A   Scattered Clouds
11:01 AM 19.0 °F 5.0 °F 12.0 °F 74% 29.47 in 10.0 mi SE 15.0 mph - N/A   Mostly Cloudy
12:01 PM 21.0 °F 8.1 °F 14.0 °F 74% 29.45 in 10.0 mi SE 13.8 mph - N/A   Overcast
1:01 PM 21.9 °F 10.4 °F 15.1 °F 75% 29.44 in 10.0 mi SE 11.5 mph - N/A   Overcast
2:01 PM 27.0 °F 17.3 °F 21.0 °F 78% 29.42 in 10.0 mi ESE 10.4 mph - N/A   Overcast
3:01 PM 28.9 °F 21.1 °F 21.9 °F 75% 29.38 in 10.0 mi ESE 8.1 mph - N/A   Overcast
4:01 PM 28.9 °F 21.9 °F 21.9 °F 75% 29.35 in 10.0 mi East 6.9 mph - N/A   Mostly Cloudy
5:01 PM 21.0 °F 9.3 °F 17.1 °F 85% 29.31 in 10.0 mi SE 11.5 mph - N/A   Clear
6:01 PM 23.0 °F 9.6 °F 19.0 °F 85% 29.25 in 10.0 mi SSE 16.1 mph - N/A   Clear
7:01 PM 24.1 °F 15.2 °F 19.0 °F 81% 29.22 in 10.0 mi SSE 8.1 mph - N/A   Clear
8:01 PM 27.0 °F 15.6 °F 21.0 °F 78% 29.18 in 10.0 mi SE 13.8 mph - N/A   Clear
9:01 PM 30.2 °F 18.9 °F 26.6 °F 86% 29.13 in 10.0 mi SSW 16.1 mph - N/A   Clear
10:01 PM 28.9 °F 22.8 °F 24.1 °F 82% 29.11 in 10.0 mi SSW 5.8 mph - N/A   Partly Cloudy
11:01 PM 37.0 °F 27.4 °F 27.0 °F 67% 29.10 in 10.0 mi SW 17.3 mph - N/A   Clear